YAOGAN 11

导读 | 豆包AI

遥感十一号(YAOGAN 11)是中国于2010年9月22日在酒泉卫星发射中心,通过长征二号丁运载火箭发射入轨的遥感卫星,同时搭载发射了浙江大学研制的两颗皮星一号A卫星。作为中国遥感卫星系列的重要成员,它主要依托星载遥感器对地球开展观测,可获取空间遥感信息,在国土资源勘察、环境监测、灾害评估、农业估产及科学研究等领域发挥重要作用,推动了中国对地观测体系的建设与发展。

基本信息
目录编号:
37165
目录名称:
YAOGAN 11
国际标识:
2010-047A
轨道中心:
EARTH
卫星名称:
YAOGAN 11
卫星全名:
--
卫星状态:
在轨 (已飞行5674 天)
发射日期:
2010-09-22 UTC
国别 :
中国 (CN)
星等 :
--
轨道信息
数据来源 国际轨道数据 AOE轨道数据
星历时间 2026-04-05T20:54:32+0800
5小时前
查看轨道信息
2026-04-04T00:00:00+0800
2天前
查看轨道信息
半长轴 7001.246km 7001.243km
偏心率 0.0035887 0.0035853
轨道倾角 98.396° 98.396°
近地点辐角 114.781° 120.479°
升交点赤经 318.179° 316.217°
平近点角 245.714° 343.000°
近地点 597.983km 598.004km
远地点 648.235km 648.208km
周期 97.168分钟 97.168分钟
每日圈数 14.819712 14.819722
详细信息
使用方式:
暂无
2D轨道图
3D轨道图
轨道高度分析图
轨道倾角分析图
轨道综合分析图
查看轨道综合分析图